DW2640 Weather Reports


Display with metric or nautical units.
time (UTC)temp
F
wind
direction
speed
MPH
gust
MPH
rain 1hr
in
rain 24hr
in
rain mn
in
humidity
%
barometer
mb
20260904213042 97 209 9.0 15.0 0.00 0.00 0.00 43 1008.3
20260904211542 96 186 6.0 15.0 0.00 0.00 0.00 45 1008.4
20260904210046 96 188 11.0 18.0 0.00 0.00 0.00 45 1008.6
20260904204538 96 194 7.0 14.0 0.00 0.00 0.00 44 1008.7
20260904203047 96 245 7.0 16.0 0.00 0.00 0.00 45 1008.9
20260904201536 96 129 9.0 14.0 0.00 0.00 0.00 45 1009.0
20260904200034 96 187 9.0 15.0 0.00 0.00 0.00 45 1008.7
20260904194530 96 218 8.0 13.0 0.00 0.00 0.00 46 1008.9
20260904193028 96 225 9.0 21.0 0.00 0.00 0.00 46 1008.9
20260904191525 95 148 7.0 15.0 0.00 0.00 0.00 48 1009.0
20260904190022 95 192 9.0 15.0 0.00 0.00 0.00 48 1009.3
20260904184525 94 203 5.0 14.0 0.00 0.00 0.00 50 1009.3
20260904183014 93 274 9.0 14.0 0.00 0.00 0.00 50 1009.6
20260904181510 92 155 8.0 15.0 0.00 0.00 0.00 52 1009.7
20260904180009 92 175 9.0 16.0 0.00 0.00 0.00 52 1009.8
20260904174509 91 175 7.0 14.0 0.00 0.00 0.00 53 1010.2
20260904173015 92 142 8.0 13.0 0.00 0.00 0.00 53 1010.4
20260904171506 91 192 7.0 12.0 0.00 0.00 0.00 54 1010.5
20260904170100 90 180 6.0 14.0 0.00 0.00 0.00 57 1010.5
20260904170005 90 153 5.0 14.0 0.00 0.00 0.00 57 1010.6
20260904164600 89 221 7.0 15.0 0.00 0.00 0.00 57 1010.8
20260904163057 89 200 5.0 10.0 0.00 0.00 0.00 60 1010.9
20260904161617 88 198 6.0 13.0 0.00 0.00 0.00 59 1010.9
20260904160053 87 236 7.0 12.0 0.00 0.00 0.00 60 1010.7
20260904154550 86 163 5.0 13.0 0.00 0.00 0.00 62 1010.7
20260904153053 85 157 6.0 13.0 0.00 0.00 0.00 63 1010.7
20260904151544 85 247 5.0 11.0 0.00 0.00 0.00 65 1010.9
20260904150041 83 213 7.0 11.0 0.00 0.00 0.00 67 1011.0
20260904144551 82 205 6.0 13.0 0.00 0.00 0.00 68 1011.0
20260904143039 81 232 5.0 14.0 0.00 0.00 0.00 70 1010.9
20260904141539 80 221 5.0 13.0 0.00 0.00 0.00 72 1011.2
20260904140050 80 198 6.0 12.0 0.00 0.00 0.00 73 1010.9
20260904134536 78 199 6.0 9.0 0.00 0.00 0.00 76 1010.7
20260904133034 77 177 4.0 9.0 0.00 0.00 0.00 79 1010.7
20260904131533 76 142 4.0 9.0 0.00 0.00 0.00 81 1010.7
20260904130032 75 183 5.0 9.0 0.00 0.00 0.00 82 1010.5
20260904124531 74 166 3.0 7.0 0.00 0.00 0.00 83 1010.3
20260904123029 73 145 5.0 9.0 0.00 0.00 0.00 84 1010.3
20260904121529 73 162 4.0 7.0 0.00 0.00 0.00 85 1010.1
20260904120029 73 179 3.0 5.0 0.00 0.00 0.00 84 1010.2
20260904114536 73 163 2.0 6.0 0.00 0.00 0.00 84 1010.2
20260904113031 74 167 4.0 8.0 0.00 0.00 0.00 83 1010.3
20260904111523 74 150 2.0 7.0 0.00 0.00 0.00 82 1010.2
20260904110020 75 147 3.0 6.0 0.00 0.00 0.00 82 1009.9
20260904104519 75 189 4.0 6.0 0.00 0.00 0.00 81 1010.0
20260904103018 75 162 2.0 6.0 0.00 0.00 0.00 81 1009.9
20260904101517 75 157 4.0 9.0 0.00 0.00 0.00 80 1009.8
20260904100015 76 172 4.0 6.0 0.00 0.00 0.00 80 1009.7
20260904094525 76 161 4.0 8.0 0.00 0.00 0.00 79 1009.6
20260904093012 76 173 2.0 6.0 0.00 0.00 0.00 79 1009.4
20260904091511 76 190 1.0 9.0 0.00 0.00 0.00 78 1009.5
20260904090011 76 196 4.0 8.0 0.00 0.00 0.00 78 1009.4
20260904084509 77 211 2.0 7.0 0.00 0.00 0.00 77 1009.4
20260904083007 77 233 1.0 5.0 0.00 0.00 0.00 76 1009.6
20260904081506 77 205 2.0 5.0 0.00 0.00 0.00 75 1009.8
20260904080004 78 211 1.0 4.0 0.00 0.00 0.00 74 1009.8
20260904074500 78 221 1.0 3.0 0.00 0.00 0.00 73 1009.6
20260904073107 79 221 1.0 6.0 0.00 0.00 0.00 72 1009.8
20260904071556 79 162 4.0 8.0 0.00 0.00 0.00 72 1009.6
20260904070054 79 171 2.0 8.0 0.00 0.00 0.00 71 1009.7
20260904064601 80 187 4.0 9.0 0.00 0.00 0.00 70 1009.6
20260904063104 80 208 3.0 10.0 0.00 0.00 0.00 70 1009.6
20260904061546 80 215 4.0 8.0 0.00 0.00 0.00 69 1009.3
20260904054549 81 193 6.0 11.0 0.00 0.00 0.00 68 1009.3
20260904053038 81 194 5.0 9.0 0.00 0.00 0.00 68 1009.2
20260904051536 82 196 3.0 9.0 0.00 0.00 0.00 68 1009.1
20260904050041 82 172 4.0 12.0 0.00 0.00 0.00 67 1009.0
20260904044532 82 175 6.0 12.0 0.00 0.00 0.00 66 1008.9
20260904043030 83 144 6.0 12.0 0.00 0.00 0.00 65 1008.9
20260904041532 83 209 7.0 12.0 0.00 0.00 0.00 65 1009.0
20260904040040 83 178 5.0 11.0 0.00 0.00 0.00 65 1009.0
20260904034530 84 162 6.0 9.0 0.00 0.00 0.00 64 1008.9
20260904033028 84 178 5.0 9.0 0.00 0.00 0.00 63 1009.1
20260904031526 85 163 6.0 10.0 0.00 0.00 0.00 62 1009.0
20260904030026 85 175 5.0 11.0 0.00 0.00 0.00 62 1009.0
20260904024525 86 207 5.0 12.0 0.00 0.00 0.00 61 1008.7
20260904023026 86 142 4.0 9.0 0.00 0.00 0.00 60 1008.6
20260904021538 87 175 7.0 11.0 0.00 0.00 0.00 58 1008.3
20260904020023 88 145 7.0 13.0 0.00 0.00 0.00 57 1008.2
20260904014523 88 166 8.0 14.0 0.00 0.00 0.00 55 1007.7
20260904013021 89 188 8.0 14.0 0.00 0.00 0.00 54 1007.3
20260904011521 90 192 6.0 12.0 0.00 0.00 0.00 52 1007.0
20260904010021 91 174 6.0 14.0 0.00 0.00 0.00 51 1006.8
20260904004523 92 200 6.0 12.0 0.00 0.00 0.00 49 1006.7
20260904003024 93 159 7.0 19.0 0.00 0.00 0.00 47 1006.6
20260904001518 94 183 8.0 13.0 0.00 0.00 0.00 45 1006.5
20260904000018 94 281 6.0 13.0 0.00 0.00 0.00 44 1006.4
20260903234517 95 167 11.0 18.0 0.00 0.00 0.00 43 1006.4
20260903233030 95 143 9.0 18.0 0.00 0.00 0.00 42 1006.4
20260903231517 96 182 9.0 22.0 0.00 0.00 0.00 41 1006.3
20260903230017 97 178 11.0 20.0 0.00 0.00 0.00 40 1006.3
20260903224522 97 179 7.0 19.0 0.00 0.00 0.00 40 1006.4
20260903223014 97 225 7.0 15.0 0.00 0.00 0.00 38 1006.4
20260903221511 97 202 9.0 16.0 0.00 0.00 0.00 38 1006.4
20260903220010 97 183 10.0 16.0 0.00 0.00 0.00 39 1006.5
20260903214511 97 178 11.0 18.0 0.00 0.00 0.00 37 1006.5